Flag for South Korea Weather past 2 weeks in Incheon, South Korea

Now
52 °F

Clear.


Feels Like: 49 °F
Forecast: 47 / 65 °F
Wind: 7 mph from Northwest

Location: Incheon International Airport


UV Index: 7 (High)

Visibility: 10 mi


Pressure: 30.01 "Hg

Humidity: 67%

Dew point: 41 °F

Location of IncheonLocation

Historic Weather in Incheon

°F

Incheon temperature yesterday

Maximum temperature yesterday: 63 °F (at 12:30 PM)
Minimum temperature yesterday: 48 °F (at 3:30 AM)
Average temperature yesterday: 54 °F

Past Weeks' High & Low Weather Summary

 TemperatureHumidityPressure
High68 °F (Apr 13, 12:30 PM)100% (Apr 8, 9:30 PM)30.18 "Hg (Apr 8, 9:30 PM)
Low39 °F (Apr 8, 4:00 AM)32% (Apr 17, 1:30 PM)29.83 "Hg (Apr 17, 3:30 PM)
Average52 °F75%30.05 "Hg
* Reported Apr 6 11:00 PM — Apr 21 11:00 PM, Incheon, Weather by CustomWeather, © 2014

Note: Actual official high and low records may vary slightly from our data, if they occured in-between our weather recording intervals... More about our weather records

Advertising

Historic Weather Conditions — Data for Previous 24 hours

 ConditionsComfort  
Time TempWeatherWind HumidityBarometerVisibility
11:00 PM
Apr 21
52 °FClear.6 mph67%30.01 "Hg10 mi
10:30 PM52 °FClear.10 mph67%30.01 "Hg10 mi
10:00 PM54 °FClear.5 mph63%30.01 "Hg10 mi
9:30 PM54 °FClear.7 mph63%30.01 "Hg10 mi
9:00 PM52 °FClear.6 mph67%29.98 "Hg10 mi
8:30 PM52 °FClear.7 mph72%29.98 "Hg10 mi
8:00 PM52 °FSunny.6 mph72%29.98 "Hg10 mi
7:30 PM54 °FSunny.7 mph63%29.95 "Hg10 mi
7:00 PM54 °FSunny.10 mph63%29.95 "Hg10 mi
6:30 PM54 °FSunny.9 mph63%29.95 "Hg10 mi
6:00 PM55 °FSunny.10 mph59%29.95 "Hg10 mi
5:30 PM57 °FSunny.10 mph59%29.95 "Hg10 mi
5:00 PM59 °FClear.10 mph51%29.98 "Hg6 mi
4:30 PM59 °FClear.9 mph48%29.98 "Hg5 mi
4:00 PM61 °FPartly sunny.14 mph48%29.98 "Hg5 mi
3:30 PM61 °FPartly sunny.12 mph48%29.98 "Hg5 mi
3:00 PM63 °FPartly sunny.12 mph49%29.98 "Hg4 mi
2:30 PM61 °FScattered clouds.12 mph48%29.98 "Hg4 mi
2:00 PM61 °FScattered clouds.9 mph52%29.98 "Hg4 mi
1:30 PM63 °FScattered clouds.12 mph49%30.01 "Hg4 mi
1:00 PM61 °FScattered clouds.12 mph59%30.01 "Hg4 mi
12:30 PM63 °FScattered clouds.8 mph56%30.01 "Hg4 mi
11:30 AM61 °FScattered clouds.8 mph59%30.04 "Hg4 mi
11:00 AM59 °FScattered clouds.7 mph68%30.04 "Hg4 mi
10:30 AM59 °FScattered clouds.6 mph68%30.01 "Hg4 mi
10:00 AM59 °FScattered clouds.5 mph63%30.01 "Hg4 mi
9:30 AM57 °FScattered clouds.2 mph67%30.01 "Hg4 mi
9:00 AM55 °FPassing clouds.2 mph77%30.01 "Hg4 mi
8:30 AM54 °FFog.2 mph82%30.04 "Hg3 mi
8:00 AM52 °FFog.3 mph88%30.01 "Hg3 mi
7:30 AM52 °FFog.2 mph88%30.04 "Hg2 mi
7:00 AM50 °FFog.2 mph88%30.01 "Hg2 mi
6:00 AM48 °FFog.3 mph94%30.01 "Hg2 mi
5:30 AM48 °FFog.2 mph94%30.01 "Hg2 mi
5:00 AM50 °FFog.1 mph88%30.01 "Hg2 mi
4:30 AM50 °FFog.1 mph88%30.01 "Hg1 mi
4:00 AM48 °FFog.2 mph94%30.01 "Hg1 mi
3:30 AM48 °FFog.5 mph94%30.01 "Hg2 mi
3:00 AM50 °FFog.6 mph88%30.04 "Hg2 mi
2:30 AM50 °FFog.6 mph88%30.01 "Hg2 mi
2:00 AM50 °FFog.7 mph88%30.04 "Hg3 mi
1:30 AM50 °FPassing clouds.8 mph94%30.04 "Hg4 mi
1:00 AM50 °FPassing clouds.8 mph94%30.04 "Hg4 mi
12:30 AM50 °FClear.7 mph88%30.04 "Hg4 mi
12:00 AM50 °FClear.7 mph88%30.04 "Hg4 mi
Weather by CustomWeather, © 2014

See weather overview